Regional Weather Roundup
Issued by NWS Sioux Falls, SD

Home | Current Version | Previous Version | Graphics & Text | Print | Product List | Glossary On
Versions: 1 2 3 4 5 6 7 8 9 10 11 12 13 14 15 16 17 18 19 20 21 22 23 24 25 26 27 28 29 30 31 32 33 34 35 36 37 38 39 40 41 42 43 44 45 46 47 48 49 50
000
ASUS43 KFSD 181210
RWRFSD

WEATHER ROUNDUP FOR SE SOUTH DAKOTA/SW MINNESOTA/NW IOWA
NATIONAL WEATHER SERVICE SIOUX FALLS SD
700 AM CDT SAT APR 18 2015

NOTE: "FAIR" INDICATES FEW OR NO CLOUDS BELOW 12,000 FEET WITH NO
SIGNIFICANT WEATHER AND OR OBSTRUCTIONS TO VISIBILITY.


SDZ038>040-050-052>070-181300-
SOUTHEAST SOUTH DAKOTA

CITY           SKY/WX    TMP DP  RH WIND       PRES   REMARKS
BROOKINGS      PTCLDY    52  23  32 NE8       30.04R
CHAMBERLAIN    CLOUDY    53  35  50 N5        29.98F
6HR MIN TEMP:  51; 6HR MAX TEMP:  57;

HURON          CLOUDY    50  27  40 E8        29.99F
6HR MIN TEMP:  47; 6HR MAX TEMP:  52;

MADISON        CLOUDY    46  23  39 NE8       30.02S
MITCHELL       CLOUDY    56  26  31 E5        29.99R
6HR MIN TEMP:  54; 6HR MAX TEMP:  58;

SIOUX FALLS    LGT RAIN  54  32  43 SE7       30.01R
6HR MIN TEMP:  47; 6HR MAX TEMP:  56; 6HR PCP: TRACE;

WINNER         CLOUDY    51  41  68 NE10      29.94F
YANKTON        CLOUDY    55  32  41 NE9       29.96S
$$

MNZ071-072-080-081-089-090-097-098-181300-
SOUTHWEST MINNESOTA

CITY           SKY/WX    TMP DP  RH WIND       PRES   REMARKS
FAIRMONT       PTCLDY    46  30  53 NE3       30.02S
JACKSON        MOCLDY    54  28  37 E8        30.03S
LUVERNE        CLOUDY    55  28  35 E7        30.01S
MARSHALL       MOCLDY    45  25  45 CALM      30.05R
6HR MIN TEMP:  41; 6HR MAX TEMP:  46;

MONTEVIDEO     PTCLDY    39  27  60 E9        30.06F
PIPESTONE      MOCLDY    54  19  26 E9        30.02R
REDWOOD FALLS  PTCLDY    48  28  46 NE8       30.05S
TRACY          MOCLDY    49  25  38 CALM      30.04S
WORTHINGTON    MOCLDY    50  27  40 NE7       30.03S
$$

IAZ001>003-012>014-020>022-031-032-NEZ013-014-SDZ071-181300-
NORTHWEST IOWA

CITY           SKY/WX    TMP DP  RH WIND       PRES   REMARKS
CHEROKEE       CLOUDY    58  43  57 E13       29.98S
DENISON        CLOUDY    57  54  88 E9        29.94S
ESTHERVILLE    MOCLDY    50  38  63 NE9       30.02R
LE MARS        CLOUDY    57  43  58 W5        29.99R
ORANGE CITY    CLOUDY    55  37  50 E7        29.98S
SHELDON        CLOUDY    55  34  44 E12       29.98F
SIOUX CITY     CLOUDY    56  50  80 N8        29.96F
6HR MIN TEMP:  56; 6HR MAX TEMP:  64; 6HR PCP:  0.03;

SPENCER        CLOUDY    55  38  52 E10       30.00F
6HR MIN TEMP:  50; 6HR MAX TEMP:  56;

STORM LAKE     CLOUDY    55  45  67 E12       29.99F
$$

ABBREVIATIONS USED IN REMARKS
   TC - TEMPERATURE IN CELSIUS
  WCI - WIND CHILL INDEX
   HX - HEAT INDEX
  VSB - VISIBILITY



USA.gov is the U.S. government's official web portal to all federal, state and local government web resources and services.